Suomi 100 (43804 NORAD) Tracking and Keplerian Element Data

This shows tracking and keplerian element data for the satellite.

Feedback or suggestion? Click here.




ElementValue
Catalog43804
NameSuomi 100
Epoch Orbit2547
Epoch Day143.20366818
Epoch Year2019
RAAN215.4732
Inclination97.7431
Eccentricity0.0016558
Argument of Perigee61.198
Mean Anonmoly299.0901
Mean Motion14.95248036
Decay Rate4.47E-06
L11 43804U 18099AY 19143.20366818 .00000447 00000-0 45825-4 0 9991
L22 43804 97.7431 215.4732 0016558 61.1980 299.0901 14.95248036 25476

Live tracking and technical data element details for Suomi 100 (NORAD 43804). Suomi 100 can be tracked NOW for your location showing map with azimuth and elevation plus other details from your city location.

Track the satellite on the map from your city or location and see movement details for azimuth, elevation, latitude, longitude, range, height, and movement on the map or in text.







IsCatalogInMostPopularTable: catalog: 43804, numindb: 331
Update: records affected: 1



GetName: 43804 Suomi 100

Hit Count: updated at: Sun, 26 May 2019 08:53:58 GMT